Weather History for Stigler, OK

Change the Weather History Date:

Friday, January 3, 2014

  Actual Average (KJSV) Record (KJSV)
Temperature  
Mean Temperature 32 °F -  
Max Temperature 46 °F 47 °F 78 °F (2009)
Min Temperature 17 °F 28 °F 4 °F (1959)
Degree Days  
Heating Degree Days 34    
Moisture  
Dew Point 12 °F    
Average Humidity 48    
Maximum Humidity 73    
Minimum Humidity 23    
Precipitation  
Precipitation 0.00 in - - ()
Sea Level Pressure  
Sea Level Pressure 30.28 in    
Wind  
Wind Speed 7 mph (SE)    
Max Wind Speed 20 mph    
Max Gust Speed 29 mph    
Visibility 10 miles    
Events      
Averages and records for this station are not official NWS values.
T = Trace of Precipitation, MM = Missing Value Source: NWS Daily Summary

Daily Weather History Graph

Daily Weather History Graph

Search for Another Location

Airport:

Trip Planner

Search our weather history database for the weather conditions in past years. The results will help you decide how hot, cold, wet, or windy it might be!

Date:

Astronomy

Jan. 03, 2014 Rise Set
Actual Time 7:29 AM CST 5:20 PM CST
Civil Twilight 7:01 AM CST 5:48 PM CST
Nautical Twilight 6:29 AM CST 6:20 PM CST
Astronomical Twilight 5:58 AM CST 6:51 PM CST
Moon 9:02 AM CST (1/3) 8:23 PM CST (1/3)
Length of Visible Light 10h 47m
Length of Day
9h 51m
Waxing Crescent, 8% of the Moon is Illuminated
Jan 3
Waxing Crescent
Jan 7
First Quarter
Jan 15
Full
Jan 23
Last Quarter
Jan 30
New

Hourly Weather History & Observations

Time (CST) Temp. Windchill Dew Point Humidity Pressure Visibility Wind Dir Wind Speed Gust Speed Precip Events Conditions
12:15 AM 19.4 °F - 10.4 °F 68% 30.49 in 10.0 mi Calm Calm - N/A   Unknown
12:35 AM 19.4 °F 14.3 °F 10.4 °F 68% 30.48 in 10.0 mi East 3.5 mph - N/A   Unknown
12:55 AM 19.4 °F 12.8 °F 10.4 °F 68% 30.48 in 10.0 mi East 4.6 mph - N/A   Unknown
1:15 AM 17.6 °F 12.3 °F 10.4 °F 73% 30.48 in 10.0 mi NNE 3.5 mph - N/A   Unknown
1:35 AM 17.6 °F - 10.4 °F 73% 30.48 in 10.0 mi Calm Calm - N/A   Unknown
1:55 AM 17.6 °F - 10.4 °F 73% 30.48 in 10.0 mi Calm Calm - N/A   Unknown
2:15 AM 17.6 °F 12.3 °F 10.4 °F 73% 30.48 in 10.0 mi ESE 3.5 mph - N/A   Unknown
2:35 AM 17.6 °F 9.3 °F 10.4 °F 73% 30.47 in 10.0 mi ENE 5.8 mph - N/A   Unknown
2:55 AM 19.4 °F 12.8 °F 10.4 °F 68% 30.47 in 9.0 mi ESE 4.6 mph - N/A   Unknown
3:15 AM 17.6 °F - 10.4 °F 73% 30.47 in 10.0 mi Calm Calm - N/A   Unknown
3:35 AM 17.6 °F - 10.4 °F 73% 30.47 in 10.0 mi Calm Calm - N/A   Unknown
3:55 AM 17.6 °F - 10.4 °F 73% 30.47 in 10.0 mi Calm Calm - N/A   Unknown
4:15 AM 19.4 °F - 10.4 °F 68% 30.47 in 10.0 mi Calm Calm - N/A   Unknown
4:35 AM 19.4 °F 14.3 °F 8.6 °F 63% 30.46 in 10.0 mi East 3.5 mph - N/A   Unknown
4:55 AM 17.6 °F - 8.6 °F 68% 30.46 in 10.0 mi Calm Calm - N/A   Unknown
5:15 AM 17.6 °F 8.2 °F 10.4 °F 73% 30.44 in 10.0 mi ESE 6.9 mph - N/A   Unknown
5:35 AM 19.4 °F 10.4 °F 10.4 °F 68% 30.44 in 10.0 mi ESE 6.9 mph - N/A   Unknown
5:55 AM 19.4 °F 11.5 °F 10.4 °F 68% 30.44 in 10.0 mi ESE 5.8 mph - N/A   Unknown
6:15 AM 19.4 °F 10.4 °F 10.4 °F 68% 30.43 in 10.0 mi ESE 6.9 mph - N/A   Unknown
6:35 AM 19.4 °F 10.4 °F 10.4 °F 68% 30.43 in 10.0 mi ESE 6.9 mph - N/A   Unknown
6:55 AM 19.4 °F 10.4 °F 10.4 °F 68% 30.43 in 10.0 mi ESE 6.9 mph - N/A   Unknown
7:15 AM 19.4 °F 7.2 °F 10.4 °F 68% 30.42 in 10.0 mi ESE 11.5 mph - N/A   Unknown
7:35 AM 19.4 °F 8.6 °F 10.4 °F 68% 30.41 in 10.0 mi ESE 9.2 mph - N/A   Unknown
7:55 AM 19.4 °F 7.9 °F 10.4 °F 68% 30.40 in 10.0 mi ESE 10.4 mph 17.3 mph N/A   Unknown
8:15 AM 21.2 °F 10.9 °F 12.2 °F 68% 30.40 in 10.0 mi ESE 9.2 mph - N/A   Unknown
8:35 AM 23.0 °F 13.9 °F 12.2 °F 63% 30.40 in 8.0 mi ESE 8.1 mph - N/A   Unknown
8:55 AM 23.0 °F 13.9 °F 12.2 °F 63% 30.40 in 9.0 mi ESE 8.1 mph - N/A   Unknown
9:15 AM 24.8 °F 15.3 °F 12.2 °F 59% 30.40 in 10.0 mi ESE 9.2 mph - N/A   Unknown
9:35 AM 26.6 °F 17.5 °F 14.0 °F 59% 30.40 in 10.0 mi ESE 9.2 mph - N/A   Unknown
9:55 AM 26.6 °F 16.8 °F 14.0 °F 59% 30.40 in 9.0 mi ESE 10.4 mph - N/A   Unknown
10:15 AM 28.4 °F 19.1 °F 14.0 °F 55% 30.39 in 9.0 mi ESE 10.4 mph - N/A   Unknown
10:35 AM 30.2 °F 22.6 °F 14.0 °F 51% 30.39 in 10.0 mi SE 8.1 mph - N/A   Unknown
10:55 AM 32.0 °F 24.2 °F 14.0 °F 48% 30.38 in 9.0 mi ESE 9.2 mph - N/A   Unknown
11:15 AM 32.0 °F 24.2 °F 14.0 °F 48% 30.36 in 9.0 mi SE 9.2 mph - N/A   Unknown
11:35 AM 35.6 °F 28.6 °F 14.0 °F 41% 30.34 in 10.0 mi SSE 9.2 mph - N/A   Unknown
11:55 AM 39.2 °F 32.0 °F 14.0 °F 36% 30.33 in 10.0 mi South 11.5 mph - N/A   Unknown
12:15 PM 39.2 °F 32.5 °F 12.2 °F 33% 30.31 in 10.0 mi South 10.4 mph 19.6 mph N/A   Unknown
12:35 PM 41.0 °F 34.3 °F 12.2 °F 31% 30.29 in 10.0 mi SSE 11.5 mph 16.1 mph N/A   Unknown
12:55 PM 41.0 °F 35.8 °F 12.2 °F 31% 30.27 in 10.0 mi South 8.1 mph 17.3 mph N/A   Unknown
1:15 PM 42.8 °F 37.5 °F 12.2 °F 29% 30.25 in 10.0 mi SSE 9.2 mph 17.3 mph N/A   Unknown
1:35 PM 44.6 °F 38.8 °F 10.4 °F 25% 30.24 in 10.0 mi South 11.5 mph 18.4 mph N/A   Unknown
1:55 PM 44.6 °F 39.2 °F 12.2 °F 27% 30.22 in 10.0 mi South 10.4 mph 16.1 mph N/A   Unknown
2:15 PM 44.6 °F 37.8 °F 12.2 °F 27% 30.21 in 10.0 mi SSE 15.0 mph 21.9 mph N/A   Unknown
2:35 PM 44.6 °F 37.8 °F 12.2 °F 27% 30.20 in 10.0 mi South 15.0 mph 20.7 mph N/A   Unknown
2:55 PM 46.4 °F 39.5 °F 10.4 °F 23% 30.18 in 10.0 mi South 17.3 mph 24.2 mph N/A   Unknown
3:15 PM 46.4 °F 39.5 °F 10.4 °F 23% 30.17 in 10.0 mi South 17.3 mph 21.9 mph N/A   Unknown
3:35 PM 46.4 °F 39.8 °F 10.4 °F 23% 30.16 in 10.0 mi South 16.1 mph 23.0 mph N/A   Unknown
3:55 PM 46.4 °F 39.2 °F 10.4 °F 23% 30.15 in 10.0 mi South 18.4 mph 24.2 mph N/A   Unknown
4:15 PM 44.6 °F 37.8 °F 10.4 °F 25% 30.14 in 10.0 mi South 15.0 mph 24.2 mph N/A   Unknown
4:35 PM 44.6 °F 37.8 °F 10.4 °F 25% 30.13 in 10.0 mi South 15.0 mph 23.0 mph N/A   Unknown
4:55 PM 44.6 °F 37.8 °F 10.4 °F 25% 30.12 in 10.0 mi South 15.0 mph - N/A   Unknown
5:15 PM 41.0 °F 33.1 °F 10.4 °F 29% 30.11 in 10.0 mi South 15.0 mph 20.7 mph N/A   Unknown
5:35 PM 41.0 °F 34.7 °F 10.4 °F 29% 30.11 in 10.0 mi SSE 10.4 mph - N/A   Unknown
5:55 PM 39.2 °F 32.0 °F 10.4 °F 31% 30.10 in 10.0 mi SSE 11.5 mph 18.4 mph N/A   Unknown
6:15 PM 39.2 °F 32.0 °F 10.4 °F 31% 30.09 in 10.0 mi SSE 11.5 mph - N/A   Unknown
6:35 PM 39.2 °F 31.2 °F 10.4 °F 31% 30.08 in 10.0 mi SSE 13.8 mph 20.7 mph N/A   Unknown
6:55 PM 39.2 °F 31.6 °F 10.4 °F 31% 30.08 in 10.0 mi SSE 12.7 mph - N/A   Unknown
7:15 PM 37.4 °F 29.3 °F 12.2 °F 36% 30.08 in 10.0 mi SSE 12.7 mph 18.4 mph N/A   Unknown
7:35 PM 37.4 °F 28.9 °F 12.2 °F 36% 30.07 in 10.0 mi SSE 13.8 mph - N/A   Unknown
7:55 PM 37.4 °F 28.9 °F 14.0 °F 38% 30.07 in 10.0 mi SSE 13.8 mph 19.6 mph N/A   Unknown
8:15 PM 37.4 °F 28.9 °F 14.0 °F 38% 30.06 in 10.0 mi South 13.8 mph 19.6 mph N/A   Unknown
8:35 PM 37.4 °F 27.2 °F 14.0 °F 38% 30.05 in 10.0 mi South 19.6 mph 24.2 mph N/A   Unknown
8:55 PM 37.4 °F 28.9 °F 14.0 °F 38% 30.05 in 10.0 mi South 13.8 mph 23.0 mph N/A   Unknown
9:15 PM 37.4 °F 29.8 °F 14.0 °F 38% 30.04 in 10.0 mi South 11.5 mph 20.7 mph N/A   Unknown
9:35 PM 37.4 °F 29.3 °F 14.0 °F 38% 30.04 in 10.0 mi South 12.7 mph 28.8 mph N/A   Unknown
9:55 PM 37.4 °F 28.5 °F 15.8 °F 41% 30.03 in 10.0 mi South 15.0 mph 25.3 mph N/A   Unknown
10:15 PM 37.4 °F 28.2 °F 15.8 °F 41% 30.03 in 10.0 mi South 16.1 mph 24.2 mph N/A   Unknown
10:35 PM 37.4 °F 28.9 °F 15.8 °F 41% 30.03 in 10.0 mi South 13.8 mph 24.2 mph N/A   Unknown
10:55 PM 37.4 °F 29.3 °F 15.8 °F 41% 30.04 in 10.0 mi South 12.7 mph 21.9 mph N/A   Unknown
11:15 PM 37.4 °F 29.8 °F 15.8 °F 41% 30.03 in 10.0 mi SSE 11.5 mph 18.4 mph N/A   Unknown
11:35 PM 37.4 °F 30.8 °F 15.8 °F 41% 30.03 in 10.0 mi SSE 9.2 mph - N/A   Unknown
11:55 PM 37.4 °F 30.3 °F 15.8 °F 41% 30.02 in 10.0 mi SSE 10.4 mph 16.1 mph N/A   Unknown